Terug naar catalogus

FENGYUN 1C DEB

ActiefSSO
NORAD 33664·DEBRIS·🇨🇳 China

Gelanceerd May 10, 1999 vanaf Taiyuan Satellite Launch Center

Loading…

Volgende Passages (komende 24 uur)

TLE

VersSource: Space-Track

Epoch: Sep 11, 2026, 15:51 UTC

1 33664U 99025DEZ 26254.66100896  .00000220  00000-0  14661-3 0  9997
2 33664  98.7395  37.6177 0162825 354.1485   5.7777 14.04303500945696

Volg FENGYUN 1C DEB in realtime met AllMySat

Download on the App Store